Time,TemperatureF,DewpointF,PressureIn,WindDirection,WindDirectionDegrees,WindSpeedMPH,WindSpeedGustMPH,Humidity,HourlyPrecipIn,Conditions,Clouds,dailyrainin,SoftwareType,DateUTC
2013-07-16 00:00:00,75.3,72.2,30.25,East,93,0.0,0.0,90,0.00,SCT,,0.00,WeatherDisplay:10.37,2013-07-16 04:00:00,
2013-07-16 00:01:00,75.3,72.2,30.25,East,93,0.0,0.0,90,0.00,SCT,,0.00,WeatherDisplay:10.37,2013-07-16 04:01:00,
2013-07-16 00:06:00,75.3,72.2,30.25,East,93,0.0,0.0,90,0.00,FEW,,0.00,WeatherDisplay:10.37,2013-07-16 04:06:00,
2013-07-16 00:11:00,75.2,72.1,30.26,East,93,0.0,0.0,90,0.00,FEW,,0.00,WeatherDisplay:10.37,2013-07-16 04:11:00,
2013-07-16 00:16:00,75.1,72.0,30.26,East,93,0.0,0.0,90,0.00,FEW,,0.00,WeatherDisplay:10.37,2013-07-16 04:16:00,
2013-07-16 00:21:00,74.9,72.1,30.26,East,93,0.0,0.0,91,0.00,FEW,,0.00,WeatherDisplay:10.37,2013-07-16 04:21:00,
2013-07-16 00:26:00,74.9,72.1,30.26,East,93,0.0,0.0,91,0.00,FEW,,0.00,WeatherDisplay:10.37,2013-07-16 04:26:00,
2013-07-16 00:31:00,74.8,72.0,30.26,East,93,0.0,0.0,91,0.00,FEW,,0.00,WeatherDisplay:10.37,2013-07-16 04:31:00,
2013-07-16 00:36:00,74.8,72.0,30.26,East,93,0.0,0.0,91,0.00,FEW,,0.00,WeatherDisplay:10.37,2013-07-16 04:36:00,
2013-07-16 00:41:00,74.7,71.9,30.26,East,93,0.0,0.0,91,0.00,FEW,,0.00,WeatherDisplay:10.37,2013-07-16 04:41:00,
2013-07-16 00:46:00,74.6,71.8,30.26,East,93,0.0,0.0,91,0.00,FEW,,0.00,WeatherDisplay:10.37,2013-07-16 04:46:00,
2013-07-16 00:51:00,74.6,71.8,30.26,East,93,0.0,0.0,91,0.00,FEW,,0.00,WeatherDisplay:10.37,2013-07-16 04:51:00,
2013-07-16 00:56:00,74.5,71.7,30.26,East,93,0.0,0.0,91,0.00,FEW,,0.00,WeatherDisplay:10.37,2013-07-16 04:56:00,
2013-07-16 01:01:00,74.4,71.6,30.26,East,93,0.0,0.0,91,0.00,FEW,,0.00,WeatherDisplay:10.37,2013-07-16 05:01:00,
2013-07-16 01:06:00,74.3,71.5,30.26,East,93,0.0,0.0,91,0.00,FEW,,0.00,WeatherDisplay:10.37,2013-07-16 05:06:00,
2013-07-16 01:11:00,74.2,71.4,30.26,East,93,0.0,0.0,91,0.00,FEW,,0.00,WeatherDisplay:10.37,2013-07-16 05:11:00,
2013-07-16 01:16:00,74.0,71.2,30.26,East,93,0.0,0.0,91,0.00,FEW,,0.00,WeatherDisplay:10.37,2013-07-16 05:16:00,
2013-07-16 01:21:00,73.9,71.1,30.26,East,93,0.0,0.0,91,0.00,FEW,,0.00,WeatherDisplay:10.37,2013-07-16 05:21:00,
2013-07-16 01:26:00,73.9,71.1,30.26,East,93,0.0,0.0,91,0.00,FEW,,0.00,WeatherDisplay:10.37,2013-07-16 05:26:00,
2013-07-16 01:31:00,73.8,71.0,30.26,East,93,0.0,0.0,91,0.00,FEW,,0.00,WeatherDisplay:10.37,2013-07-16 05:31:00,
2013-07-16 01:36:00,73.7,70.9,30.26,East,93,0.0,0.0,91,0.00,FEW,,0.00,WeatherDisplay:10.37,2013-07-16 05:36:00,
2013-07-16 01:41:00,73.5,70.7,30.26,East,93,0.0,0.0,91,0.00,FEW,,0.00,WeatherDisplay:10.37,2013-07-16 05:41:00,
2013-07-16 01:46:00,73.5,70.7,30.26,East,93,0.0,0.0,91,0.00,FEW,,0.00,WeatherDisplay:10.37,2013-07-16 05:46:00,
2013-07-16 01:51:00,73.4,70.6,30.26,East,93,0.0,0.0,91,0.00,FEW,,0.00,WeatherDisplay:10.37,2013-07-16 05:51:00,
2013-07-16 01:56:00,73.3,70.5,30.26,East,93,0.0,0.0,91,0.00,FEW,,0.00,WeatherDisplay:10.37,2013-07-16 05:56:00,
2013-07-16 02:01:00,73.3,70.5,30.26,East,93,0.0,0.0,91,0.00,FEW,,0.00,WeatherDisplay:10.37,2013-07-16 06:01:00,
2013-07-16 02:06:00,73.2,70.7,30.26,East,93,0.0,0.0,92,0.00,FEW,,0.00,WeatherDisplay:10.37,2013-07-16 06:06:00,
2013-07-16 02:11:00,73.2,70.7,30.26,East,93,0.0,0.0,92,0.00,FEW,,0.00,WeatherDisplay:10.37,2013-07-16 06:11:00,
2013-07-16 02:16:00,73.2,70.7,30.26,East,93,0.0,0.0,92,0.00,FEW,,0.00,WeatherDisplay:10.37,2013-07-16 06:16:00,
2013-07-16 02:21:00,73.1,70.6,30.26,East,93,0.0,0.0,92,0.00,FEW,,0.00,WeatherDisplay:10.37,2013-07-16 06:21:00,
2013-07-16 02:26:00,73.1,70.6,30.25,East,93,0.0,0.0,92,0.00,FEW,,0.00,WeatherDisplay:10.37,2013-07-16 06:26:00,
2013-07-16 02:31:00,73.1,70.6,30.25,East,93,0.0,0.0,92,0.00,FEW,,0.00,WeatherDisplay:10.37,2013-07-16 06:31:00,
2013-07-16 02:36:00,73.0,70.5,30.25,East,93,0.0,0.0,92,0.00,FEW,,0.00,WeatherDisplay:10.37,2013-07-16 06:36:00,
2013-07-16 02:41:00,73.0,70.5,30.25,East,93,0.0,0.0,92,0.00,FEW,,0.00,WeatherDisplay:10.37,2013-07-16 06:41:00,
2013-07-16 02:46:00,72.9,70.4,30.25,East,93,0.0,0.0,92,0.00,FEW,,0.00,WeatherDisplay:10.37,2013-07-16 06:46:00,
2013-07-16 02:51:00,72.9,70.4,30.25,East,93,0.0,0.0,92,0.00,FEW,,0.00,WeatherDisplay:10.37,2013-07-16 06:51:00,
2013-07-16 02:56:00,72.9,70.4,30.25,East,93,0.0,0.0,92,0.00,FEW,,0.00,WeatherDisplay:10.37,2013-07-16 06:56:00,
2013-07-16 03:01:00,72.9,70.4,30.25,East,93,0.0,0.0,92,0.00,FEW,,0.00,WeatherDisplay:10.37,2013-07-16 07:01:00,
2013-07-16 03:06:00,72.9,70.4,30.25,East,93,0.0,0.0,92,0.00,FEW,,0.00,WeatherDisplay:10.37,2013-07-16 07:06:00,
2013-07-16 03:11:00,72.8,70.3,30.25,East,93,0.0,0.0,92,0.00,FEW,,0.00,WeatherDisplay:10.37,2013-07-16 07:11:00,
2013-07-16 03:16:00,72.8,70.3,30.25,East,93,0.0,0.0,92,0.00,FEW,,0.00,WeatherDisplay:10.37,2013-07-16 07:16:00,
2013-07-16 03:21:00,72.8,70.3,30.25,East,93,0.0,0.0,92,0.00,FEW,,0.00,WeatherDisplay:10.37,2013-07-16 07:21:00,
2013-07-16 03:26:00,72.7,70.2,30.25,East,93,0.0,0.0,92,0.00,FEW,,0.00,WeatherDisplay:10.37,2013-07-16 07:26:00,
2013-07-16 03:31:00,72.7,70.2,30.25,East,93,0.0,0.0,92,0.00,FEW,,0.00,WeatherDisplay:10.37,2013-07-16 07:31:00,
2013-07-16 03:36:00,72.6,70.1,30.25,East,93,0.0,0.0,92,0.00,FEW,,0.00,WeatherDisplay:10.37,2013-07-16 07:36:00,
2013-07-16 03:41:00,72.5,70.0,30.25,East,93,0.0,0.0,92,0.00,FEW,,0.00,WeatherDisplay:10.37,2013-07-16 07:41:00,
2013-07-16 03:46:00,72.5,70.0,30.25,East,93,0.0,0.0,92,0.00,FEW,,0.00,WeatherDisplay:10.37,2013-07-16 07:46:00,
2013-07-16 03:51:00,72.4,70.3,30.25,East,93,0.0,0.0,93,0.00,FEW,,0.00,WeatherDisplay:10.37,2013-07-16 07:51:00,
2013-07-16 03:56:00,72.4,70.3,30.25,East,93,0.0,0.0,93,0.00,FEW,,0.00,WeatherDisplay:10.37,2013-07-16 07:56:00,
2013-07-16 04:01:00,72.3,70.2,30.25,East,93,0.0,0.0,93,0.00,FEW,,0.00,WeatherDisplay:10.37,2013-07-16 08:01:00,
2013-07-16 04:06:00,72.2,69.7,30.25,East,93,0.0,0.0,92,0.00,FEW,,0.00,WeatherDisplay:10.37,2013-07-16 08:06:00,
2013-07-16 04:11:00,72.2,69.7,30.25,East,93,0.0,0.0,92,0.00,FEW,,0.00,WeatherDisplay:10.37,2013-07-16 08:11:00,
2013-07-16 04:16:00,72.1,69.6,30.25,East,93,0.0,0.0,92,0.00,FEW,,0.00,WeatherDisplay:10.37,2013-07-16 08:16:00,
2013-07-16 04:21:00,72.1,69.6,30.25,East,93,0.0,0.0,92,0.00,FEW,,0.00,WeatherDisplay:10.37,2013-07-16 08:21:00,
2013-07-16 04:26:00,71.9,69.4,30.25,East,93,0.0,0.0,92,0.00,FEW,,0.00,WeatherDisplay:10.37,2013-07-16 08:26:00,
2013-07-16 04:31:00,71.9,69.8,30.25,East,93,0.0,0.0,93,0.00,FEW,,0.00,WeatherDisplay:10.37,2013-07-16 08:31:00,
2013-07-16 04:36:00,71.9,69.8,30.25,East,93,0.0,0.0,93,0.00,FEW,,0.00,WeatherDisplay:10.37,2013-07-16 08:36:00,
2013-07-16 04:41:00,71.8,69.7,30.25,East,93,0.0,0.0,93,0.00,FEW,,0.00,WeatherDisplay:10.37,2013-07-16 08:41:00,
2013-07-16 04:46:00,71.8,69.7,30.25,East,93,0.0,0.0,93,0.00,FEW,,0.00,WeatherDisplay:10.37,2013-07-16 08:46:00,
2013-07-16 04:51:00,71.7,69.6,30.25,East,93,0.0,0.0,93,0.00,FEW,,0.00,WeatherDisplay:10.37,2013-07-16 08:51:00,
2013-07-16 04:56:00,71.7,69.6,30.25,East,93,0.0,0.0,93,0.00,FEW,,0.00,WeatherDisplay:10.37,2013-07-16 08:56:00,
2013-07-16 05:01:00,71.6,69.5,30.25,East,93,0.0,0.0,93,0.00,FEW,,0.00,WeatherDisplay:10.37,2013-07-16 09:01:00,
2013-07-16 05:06:00,71.5,69.4,30.25,East,93,0.0,0.0,93,0.00,FEW,,0.00,WeatherDisplay:10.37,2013-07-16 09:06:00,
2013-07-16 05:11:00,71.5,69.4,30.25,East,93,0.0,0.0,93,0.00,FEW,,0.00,WeatherDisplay:10.37,2013-07-16 09:11:00,
2013-07-16 05:16:00,71.5,69.4,30.26,East,93,0.0,0.0,93,0.00,FEW,,0.00,WeatherDisplay:10.37,2013-07-16 09:16:00,
2013-07-16 05:21:00,71.5,69.4,30.26,East,93,0.0,0.0,93,0.00,FEW,,0.00,WeatherDisplay:10.37,2013-07-16 09:21:00,
2013-07-16 05:26:00,71.5,69.4,30.26,East,93,0.0,0.0,93,0.00,FEW,,0.00,WeatherDisplay:10.37,2013-07-16 09:26:00,
2013-07-16 05:31:00,71.5,69.4,30.26,East,93,0.0,0.0,93,0.00,FEW,,0.00,WeatherDisplay:10.37,2013-07-16 09:31:00,
2013-07-16 05:36:00,71.4,69.3,30.26,East,93,0.0,0.0,93,0.00,FEW,,0.00,WeatherDisplay:10.37,2013-07-16 09:36:00,
2013-07-16 05:41:00,71.5,69.4,30.26,East,93,0.0,0.0,93,0.00,FEW,,0.00,WeatherDisplay:10.37,2013-07-16 09:41:00,
2013-07-16 05:46:00,71.5,69.4,30.26,East,93,0.0,0.0,93,0.00,FEW,,0.00,WeatherDisplay:10.37,2013-07-16 09:46:00,
2013-07-16 05:51:00,71.5,69.4,30.26,East,93,0.0,0.0,93,0.00,FEW,,0.00,WeatherDisplay:10.37,2013-07-16 09:51:00,
2013-07-16 05:56:00,71.5,69.4,30.26,East,93,0.0,0.0,93,0.00,FEW,,0.00,WeatherDisplay:10.37,2013-07-16 09:56:00,
2013-07-16 06:01:00,71.5,69.4,30.26,East,93,0.0,0.0,93,0.00,FEW,,0.00,WeatherDisplay:10.37,2013-07-16 10:01:00,
2013-07-16 06:06:00,71.5,69.4,30.26,East,93,0.0,0.0,93,0.00,SCT,,0.00,WeatherDisplay:10.37,2013-07-16 10:06:00,
2013-07-16 06:11:00,71.4,69.3,30.26,East,93,0.0,0.0,93,0.00,SCT,,0.00,WeatherDisplay:10.37,2013-07-16 10:11:00,
2013-07-16 06:16:00,71.4,69.3,30.27,East,93,0.0,0.0,93,0.00,SCT,,0.00,WeatherDisplay:10.37,2013-07-16 10:16:00,
2013-07-16 06:21:00,71.4,69.3,30.27,East,93,0.0,0.0,93,0.00,SCT,,0.00,WeatherDisplay:10.37,2013-07-16 10:21:00,
2013-07-16 06:26:00,71.4,69.3,30.27,East,93,0.0,0.0,93,0.00,SCT,,0.00,WeatherDisplay:10.37,2013-07-16 10:26:00,
2013-07-16 06:31:00,71.4,69.3,30.27,East,93,0.0,0.0,93,0.00,SCT,,0.00,WeatherDisplay:10.37,2013-07-16 10:31:00,
2013-07-16 06:36:00,71.4,69.3,30.27,East,93,0.0,0.0,93,0.00,SCT,,0.00,WeatherDisplay:10.37,2013-07-16 10:36:00,
2013-07-16 06:41:00,71.4,69.3,30.27,East,93,0.0,0.0,93,0.00,SCT,,0.00,WeatherDisplay:10.37,2013-07-16 10:41:00,
2013-07-16 06:46:00,71.3,69.2,30.28,East,93,0.0,0.0,93,0.00,SCT,,0.00,WeatherDisplay:10.37,2013-07-16 10:46:00,
2013-07-16 06:51:00,71.5,69.7,30.28,East,93,0.0,0.0,94,0.00,SCT,,0.00,WeatherDisplay:10.37,2013-07-16 10:51:00,
2013-07-16 06:56:00,71.5,69.7,30.28,East,93,0.0,0.0,94,0.00,SCT,,0.00,WeatherDisplay:10.37,2013-07-16 10:56:00,
2013-07-16 07:01:00,71.6,69.8,30.28,East,93,0.0,0.0,94,0.00,SCT,,0.00,WeatherDisplay:10.37,2013-07-16 11:01:00,
2013-07-16 07:06:00,71.7,69.9,30.28,East,93,0.0,0.0,94,0.00,SCT,,0.00,WeatherDisplay:10.37,2013-07-16 11:06:00,
2013-07-16 07:11:00,71.8,70.0,30.28,East,93,0.0,0.0,94,0.00,SCT,,0.00,WeatherDisplay:10.37,2013-07-16 11:11:00,
2013-07-16 07:16:00,71.9,70.1,30.28,East,93,0.0,0.0,94,0.00,SCT,,0.00,WeatherDisplay:10.37,2013-07-16 11:16:00,
2013-07-16 07:21:00,72.1,70.3,30.28,East,93,0.0,0.0,94,0.00,SCT,,0.00,WeatherDisplay:10.37,2013-07-16 11:21:00,
2013-07-16 07:26:00,72.4,70.6,30.28,East,93,0.0,0.0,94,0.00,SCT,,0.00,WeatherDisplay:10.37,2013-07-16 11:26:00,
2013-07-16 07:31:00,72.6,70.8,30.28,East,93,0.0,0.0,94,0.00,SCT,,0.00,WeatherDisplay:10.37,2013-07-16 11:31:00,
2013-07-16 07:36:00,73.0,71.2,30.28,East,93,0.0,0.0,94,0.00,SCT,,0.00,WeatherDisplay:10.37,2013-07-16 11:36:00,
2013-07-16 07:41:00,73.4,71.9,30.29,East,93,0.0,0.0,95,0.00,SCT,,0.00,WeatherDisplay:10.37,2013-07-16 11:41:00,
2013-07-16 07:46:00,73.6,71.8,30.28,East,93,0.0,0.0,94,0.00,SCT,,0.00,WeatherDisplay:10.37,2013-07-16 11:46:00,
2013-07-16 07:51:00,73.8,72.3,30.29,East,93,0.0,0.0,95,0.00,SCT,,0.00,WeatherDisplay:10.37,2013-07-16 11:51:00,
2013-07-16 07:56:00,74.0,72.5,30.28,East,93,0.0,0.0,95,0.00,SCT,,0.00,WeatherDisplay:10.37,2013-07-16 11:56:00,
2013-07-16 08:01:00,74.2,72.7,30.28,East,93,0.0,0.0,95,0.00,SCT,,0.00,WeatherDisplay:10.37,2013-07-16 12:01:00,
2013-07-16 08:06:00,74.5,73.0,30.29,East,94,0.0,0.0,95,0.00,SCT,,0.00,WeatherDisplay:10.37,2013-07-16 12:06:00,
2013-07-16 08:11:00,74.9,73.4,30.28,North,360,0.0,0.0,95,0.00,SCT,,0.00,WeatherDisplay:10.37,2013-07-16 12:11:00,
2013-07-16 08:16:00,75.2,73.7,30.29,East,93,0.0,0.0,95,0.00,SCT,,0.00,WeatherDisplay:10.37,2013-07-16 12:16:00,
2013-07-16 08:21:00,75.5,74.0,30.29,East,93,0.0,0.0,95,0.00,SCT,,0.00,WeatherDisplay:10.37,2013-07-16 12:21:00,
2013-07-16 08:26:00,75.9,74.4,30.29,East,93,0.0,0.0,95,0.00,SCT,,0.00,WeatherDisplay:10.37,2013-07-16 12:26:00,
2013-07-16 08:31:00,76.3,74.4,30.29,North,360,0.0,0.0,94,0.00,SCT,,0.00,WeatherDisplay:10.37,2013-07-16 12:31:00,
2013-07-16 08:36:00,76.7,74.8,30.29,North,360,0.0,0.0,94,0.00,SCT,,0.00,WeatherDisplay:10.37,2013-07-16 12:36:00,
2013-07-16 08:41:00,77.4,75.2,30.28,North,360,0.0,0.0,93,0.00,SCT,,0.00,WeatherDisplay:10.37,2013-07-16 12:41:00,
2013-07-16 08:46:00,78.1,75.6,30.29,North,360,0.0,0.0,92,0.00,SCT,,0.00,WeatherDisplay:10.37,2013-07-16 12:46:00,
2013-07-16 08:51:00,78.6,75.1,30.28,North,360,0.0,0.0,89,0.00,SCT,,0.00,WeatherDisplay:10.37,2013-07-16 12:51:00,
2013-07-16 08:56:00,79.1,75.2,30.28,East,96,0.0,0.0,88,0.00,SCT,,0.00,WeatherDisplay:10.37,2013-07-16 12:56:00,
2013-07-16 09:01:00,79.6,75.0,30.29,North,360,0.0,0.0,86,0.00,SCT,,0.00,WeatherDisplay:10.37,2013-07-16 13:01:00,
2013-07-16 09:06:00,80.2,75.3,30.29,North,360,0.0,0.0,85,0.00,SCT,,0.00,WeatherDisplay:10.37,2013-07-16 13:06:00,
2013-07-16 09:11:00,80.8,75.2,30.29,North,360,0.0,0.0,83,0.00,SCT,,0.00,WeatherDisplay:10.37,2013-07-16 13:11:00,
2013-07-16 09:16:00,81.1,74.7,30.29,SSE,155,0.0,0.0,81,0.00,SCT,,0.00,WeatherDisplay:10.37,2013-07-16 13:16:00,
2013-07-16 09:21:00,81.4,73.9,30.29,North,360,0.0,0.0,78,0.00,SCT,,0.00,WeatherDisplay:10.37,2013-07-16 13:21:00,
2013-07-16 09:26:00,81.9,74.7,30.29,North,360,0.5,3.5,79,0.00,SCT,,0.00,WeatherDisplay:10.37,2013-07-16 13:26:00,
2013-07-16 09:31:00,82.2,74.3,30.29,North,360,0.5,2.3,77,0.00,SCT,,0.00,WeatherDisplay:10.37,2013-07-16 13:31:00,
2013-07-16 09:36:00,82.4,74.8,30.29,North,360,0.5,3.5,78,0.00,SCT,,0.00,WeatherDisplay:10.37,2013-07-16 13:36:00,
2013-07-16 09:41:00,82.8,74.8,30.29,North,360,0.6,1.1,77,0.00,SCT,,0.00,WeatherDisplay:10.37,2013-07-16 13:41:00,
2013-07-16 09:46:00,83.3,75.7,30.29,SW,229,0.4,2.3,78,0.00,SCT,,0.00,WeatherDisplay:10.37,2013-07-16 13:46:00,
2013-07-16 09:51:00,83.3,74.1,30.29,SW,229,0.8,1.1,74,0.00,SCT,,0.00,WeatherDisplay:10.37,2013-07-16 13:51:00,
2013-07-16 09:56:00,83.5,74.7,30.29,SW,219,1.0,3.5,75,0.00,SCT,,0.00,WeatherDisplay:10.37,2013-07-16 13:56:00,
2013-07-16 10:01:00,83.8,75.0,30.29,WSW,244,1.0,3.5,75,0.00,SCT,,0.00,WeatherDisplay:10.37,2013-07-16 14:01:00,
2013-07-16 10:06:00,83.9,74.3,30.29,WSW,244,0.8,2.3,73,0.00,SCT,,0.00,WeatherDisplay:10.37,2013-07-16 14:06:00,
2013-07-16 10:11:00,84.1,73.7,30.29,North,360,0.0,1.1,71,0.00,SCT,,0.00,WeatherDisplay:10.37,2013-07-16 14:11:00,
2013-07-16 10:16:00,84.6,75.4,30.29,North,360,0.5,2.3,74,0.00,SCT,,0.00,WeatherDisplay:10.37,2013-07-16 14:16:00,
2013-07-16 10:21:00,84.9,75.7,30.29,North,360,0.0,2.3,74,0.00,SCT,,0.00,WeatherDisplay:10.37,2013-07-16 14:21:00,
2013-07-16 10:26:00,85.1,75.5,30.29,North,360,0.0,1.1,73,0.00,SCT,,0.00,WeatherDisplay:10.37,2013-07-16 14:26:00,
2013-07-16 10:31:00,85.1,75.5,30.28,North,360,0.0,0.0,73,0.00,SCT,,0.00,WeatherDisplay:10.37,2013-07-16 14:31:00,
2013-07-16 10:36:00,85.1,75.1,30.29,North,360,2.1,3.0,72,0.00,SCT,,0.00,WeatherDisplay:10.37,2013-07-16 14:36:00,
2013-07-16 10:41:00,85.1,73.3,30.28,North,360,0.2,3.5,68,0.00,SCT,,0.00,WeatherDisplay:10.37,2013-07-16 14:41:00,
2013-07-16 10:46:00,85.3,76.1,30.28,North,360,0.1,1.1,74,0.00,SCT,,0.00,WeatherDisplay:10.37,2013-07-16 14:46:00,
2013-07-16 10:51:00,85.5,75.4,30.28,North,360,0.6,3.5,72,0.00,SCT,,0.00,WeatherDisplay:10.37,2013-07-16 14:51:00,
2013-07-16 10:56:00,85.7,75.6,30.28,North,360,3.0,4.6,72,0.00,SCT,,0.00,WeatherDisplay:10.37,2013-07-16 14:56:00,
2013-07-16 11:01:00,85.8,75.3,30.28,North,360,1.5,1.5,71,0.00,SCT,,0.00,WeatherDisplay:10.37,2013-07-16 15:01:00,
2013-07-16 11:06:00,85.9,75.0,30.28,North,360,0.0,0.0,70,0.00,SCT,,0.00,WeatherDisplay:10.37,2013-07-16 15:06:00,
2013-07-16 11:11:00,86.1,76.4,30.28,North,360,0.6,2.3,73,0.00,SCT,,0.00,WeatherDisplay:10.37,2013-07-16 15:11:00,
2013-07-16 11:16:00,86.2,75.7,30.28,North,360,0.0,0.0,71,0.00,SCT,,0.00,WeatherDisplay:10.37,2013-07-16 15:16:00,
2013-07-16 11:21:00,86.3,75.8,30.28,North,360,2.6,4.6,71,0.00,SCT,,0.00,WeatherDisplay:10.37,2013-07-16 15:21:00,
2013-07-16 11:26:00,86.5,77.6,30.28,North,360,0.8,2.3,75,0.00,SCT,,0.00,WeatherDisplay:10.37,2013-07-16 15:26:00,
2013-07-16 11:31:00,86.7,75.7,30.27,North,360,0.0,0.0,70,0.00,SCT,,0.00,WeatherDisplay:10.37,2013-07-16 15:31:00,
2013-07-16 11:36:00,86.8,75.0,30.27,North,360,1.1,3.5,68,0.00,SCT,,0.00,WeatherDisplay:10.37,2013-07-16 15:36:00,
2013-07-16 11:41:00,87.1,75.7,30.27,North,360,0.0,2.3,69,0.00,SCT,,0.00,WeatherDisplay:10.37,2013-07-16 15:41:00,
2013-07-16 11:46:00,87.3,75.4,30.26,North,360,0.0,0.0,68,0.00,SCT,,0.00,WeatherDisplay:10.37,2013-07-16 15:46:00,
2013-07-16 11:51:00,87.6,76.6,30.27,North,360,1.6,2.3,70,0.00,SCT,,0.00,WeatherDisplay:10.37,2013-07-16 15:51:00,
2013-07-16 11:56:00,87.9,75.6,30.27,North,360,0.4,3.5,67,0.00,SCT,,0.00,WeatherDisplay:10.37,2013-07-16 15:56:00,
2013-07-16 12:01:00,88.0,75.2,30.27,North,360,1.0,3.5,66,0.00,SCT,,0.00,WeatherDisplay:10.37,2013-07-16 16:01:00,
2013-07-16 12:06:00,88.1,75.3,30.27,NW,317,0.1,1.1,66,0.00,OVC,,0.00,WeatherDisplay:10.37,2013-07-16 16:06:00,
2013-07-16 12:11:00,88.4,75.1,30.26,North,360,0.0,1.1,65,0.00,OVC,,0.00,WeatherDisplay:10.37,2013-07-16 16:11:00,
2013-07-16 12:16:00,88.8,75.5,30.26,NW,315,0.1,2.3,65,0.00,OVC,,0.00,WeatherDisplay:10.37,2013-07-16 16:16:00,
2013-07-16 12:21:00,89.3,76.9,30.26,NW,316,1.0,4.6,67,0.00,OVC,,0.00,WeatherDisplay:10.37,2013-07-16 16:21:00,
2013-07-16 12:26:00,89.4,76.5,30.26,NW,323,0.6,1.1,66,0.00,OVC,,0.00,WeatherDisplay:10.37,2013-07-16 16:26:00,
2013-07-16 12:31:00,89.5,76.2,30.27,NW,313,3.8,5.0,65,0.00,OVC,,0.00,WeatherDisplay:10.37,2013-07-16 16:31:00,
2013-07-16 12:36:00,88.4,75.6,30.28,WSW,245,3.2,5.0,66,0.00,OVC,,0.00,WeatherDisplay:10.37,2013-07-16 16:36:00,
2013-07-16 12:41:00,86.2,72.6,30.28,North,350,1.2,8.1,64,0.00,OVC,,0.00,WeatherDisplay:10.37,2013-07-16 16:41:00,
2013-07-16 12:46:00,84.1,71.5,30.28,NNE,15,0.9,5.8,66,0.00,OVC,,0.01,WeatherDisplay:10.37,2013-07-16 16:46:00,
2013-07-16 12:51:00,82.2,71.0,30.28,North,355,0.2,3.5,69,0.10,RA,,0.11,WeatherDisplay:10.37,2013-07-16 16:51:00,
2013-07-16 12:56:00,80.3,70.9,30.28,North,355,0.4,3.5,73,0.17,RA,,0.17,WeatherDisplay:10.37,2013-07-16 16:56:00,
2013-07-16 13:01:00,78.7,70.5,30.27,North,355,0.0,0.0,76,0.20,RA,,0.21,WeatherDisplay:10.37,2013-07-16 17:01:00,
2013-07-16 13:06:00,77.8,71.9,30.27,North,355,0.0,1.1,82,0.21,RA,,0.21,WeatherDisplay:10.37,2013-07-16 17:06:00,
2013-07-16 13:11:00,77.1,71.9,30.27,North,350,0.1,1.1,84,0.21,BKN,,0.21,WeatherDisplay:10.37,2013-07-16 17:11:00,
2013-07-16 13:16:00,76.8,72.3,30.27,West,267,0.6,2.3,86,0.21,BKN,,0.21,WeatherDisplay:10.37,2013-07-16 17:16:00,
2013-07-16 13:21:00,76.6,72.4,30.27,SW,214,0.0,0.0,87,0.21,BKN,,0.21,WeatherDisplay:10.37,2013-07-16 17:21:00,
2013-07-16 13:26:00,76.6,72.8,30.26,SW,214,0.1,2.3,88,0.21,BKN,,0.21,WeatherDisplay:10.37,2013-07-16 17:26:00,
2013-07-16 13:31:00,76.7,73.2,30.26,SW,214,0.0,0.0,89,0.21,BKN,,0.21,WeatherDisplay:10.37,2013-07-16 17:31:00,
2013-07-16 13:36:00,76.9,73.4,30.26,SW,214,0.0,0.0,89,0.21,BKN,,0.21,WeatherDisplay:10.37,2013-07-16 17:36:00,
2013-07-16 13:41:00,77.3,74.1,30.26,SW,214,0.0,0.0,90,0.21,BKN,,0.21,WeatherDisplay:10.37,2013-07-16 17:41:00,
2013-07-16 13:46:00,77.6,74.1,30.26,SW,214,0.0,0.0,89,0.21,BKN,,0.21,WeatherDisplay:10.37,2013-07-16 17:46:00,
2013-07-16 13:51:00,77.9,74.4,30.26,SW,214,0.0,0.0,89,0.13,BKN,,0.21,WeatherDisplay:10.37,2013-07-16 17:51:00,
2013-07-16 13:56:00,78.3,75.1,30.26,SW,214,0.0,0.0,90,0.06,BKN,,0.21,WeatherDisplay:10.37,2013-07-16 17:56:00,
2013-07-16 14:01:00,78.6,75.1,30.26,SW,214,0.0,0.0,89,0.02,BKN,,0.21,WeatherDisplay:10.37,2013-07-16 18:01:00,
2013-07-16 14:06:00,78.5,74.3,30.27,SW,214,0.0,0.0,87,0.00,BKN,,0.21,WeatherDisplay:10.37,2013-07-16 18:06:00,
2013-07-16 14:11:00,78.5,74.3,30.27,SW,214,0.1,1.1,87,0.00,BKN,,0.21,WeatherDisplay:10.37,2013-07-16 18:11:00,
2013-07-16 14:16:00,78.5,74.6,30.28,SW,214,0.0,0.0,88,0.00,BKN,,0.21,WeatherDisplay:10.37,2013-07-16 18:16:00,
2013-07-16 14:21:00,78.5,74.6,30.26,SW,214,0.0,0.0,88,0.00,BKN,,0.21,WeatherDisplay:10.37,2013-07-16 18:21:00,
2013-07-16 14:26:00,78.4,74.5,30.25,SW,214,0.0,0.0,88,0.00,BKN,,0.21,WeatherDisplay:10.37,2013-07-16 18:26:00,
2013-07-16 14:31:00,78.3,74.5,30.26,SW,214,0.0,0.0,88,0.00,BKN,,0.21,WeatherDisplay:10.37,2013-07-16 18:31:00,
2013-07-16 14:36:00,78.1,74.6,30.26,SW,214,0.0,0.0,89,0.00,BKN,,0.21,WeatherDisplay:10.37,2013-07-16 18:36:00,
2013-07-16 14:41:00,78.0,74.5,30.26,SW,214,0.0,0.0,89,0.00,BKN,,0.21,WeatherDisplay:10.37,2013-07-16 18:41:00,
2013-07-16 14:46:00,77.9,74.4,30.26,SW,214,0.0,0.0,89,0.00,BKN,,0.21,WeatherDisplay:10.37,2013-07-16 18:46:00,
2013-07-16 14:51:00,77.9,74.7,30.26,SW,214,0.0,0.0,90,0.00,BKN,,0.21,WeatherDisplay:10.37,2013-07-16 18:51:00,
2013-07-16 14:56:00,77.8,74.6,30.25,SW,214,0.0,0.0,90,0.00,BKN,,0.21,WeatherDisplay:10.37,2013-07-16 18:56:00,
2013-07-16 15:01:00,77.7,74.5,30.25,SW,214,0.0,0.0,90,0.00,BKN,,0.21,WeatherDisplay:10.37,2013-07-16 19:01:00,
2013-07-16 15:06:00,77.6,74.4,30.25,SW,214,0.0,0.0,90,0.00,BKN,,0.21,WeatherDisplay:10.37,2013-07-16 19:06:00,
2013-07-16 15:11:00,77.6,74.4,30.25,SW,214,0.0,0.0,90,0.00,BKN,,0.21,WeatherDisplay:10.37,2013-07-16 19:11:00,
2013-07-16 15:16:00,77.6,74.8,30.25,SW,214,0.0,0.0,91,0.00,BKN,,0.21,WeatherDisplay:10.37,2013-07-16 19:16:00,
2013-07-16 15:21:00,77.6,74.8,30.25,SW,214,0.0,0.0,91,0.00,BKN,,0.21,WeatherDisplay:10.37,2013-07-16 19:21:00,
2013-07-16 15:26:00,77.6,74.8,30.25,SW,214,0.1,1.1,91,0.00,BKN,,0.21,WeatherDisplay:10.37,2013-07-16 19:26:00,
2013-07-16 15:31:00,77.6,74.8,30.25,SW,214,0.0,0.0,91,0.00,BKN,,0.21,WeatherDisplay:10.37,2013-07-16 19:31:00,
2013-07-16 15:36:00,77.6,74.8,30.25,SW,214,0.0,0.0,91,0.00,BKN,,0.21,WeatherDisplay:10.37,2013-07-16 19:36:00,
2013-07-16 15:41:00,77.7,74.9,30.25,SW,214,0.0,0.0,91,0.00,BKN,,0.21,WeatherDisplay:10.37,2013-07-16 19:41:00,
2013-07-16 15:46:00,77.7,74.9,30.25,SW,214,0.0,1.1,91,0.00,BKN,,0.21,WeatherDisplay:10.37,2013-07-16 19:46:00,
2013-07-16 15:51:00,77.8,75.0,30.25,SW,214,0.0,0.0,91,0.00,BKN,,0.21,WeatherDisplay:10.37,2013-07-16 19:51:00,
2013-07-16 15:56:00,78.0,75.2,30.24,SW,214,0.0,0.0,91,0.00,BKN,,0.21,WeatherDisplay:10.37,2013-07-16 19:56:00,
2013-07-16 16:01:00,78.2,75.4,30.24,SW,214,0.0,0.0,91,0.00,BKN,,0.21,WeatherDisplay:10.37,2013-07-16 20:01:00,
2013-07-16 16:06:00,78.3,75.5,30.24,SW,214,0.1,1.1,91,0.00,BKN,,0.21,WeatherDisplay:10.37,2013-07-16 20:06:00,
2013-07-16 16:11:00,78.4,75.2,30.24,SW,214,0.0,0.0,90,0.00,BKN,,0.21,WeatherDisplay:10.37,2013-07-16 20:11:00,
2013-07-16 16:16:00,78.5,75.3,30.25,SW,214,0.0,0.0,90,0.00,BKN,,0.21,WeatherDisplay:10.37,2013-07-16 20:16:00,
2013-07-16 16:21:00,78.7,75.2,30.24,SW,214,0.2,1.1,89,0.00,BKN,,0.21,WeatherDisplay:10.37,2013-07-16 20:21:00,
2013-07-16 16:26:00,78.9,75.4,30.25,SW,214,0.0,0.0,89,0.00,BKN,,0.21,WeatherDisplay:10.37,2013-07-16 20:26:00,
2013-07-16 16:31:00,79.2,75.7,30.25,SW,214,0.0,0.0,89,0.00,BKN,,0.21,WeatherDisplay:10.37,2013-07-16 20:31:00,
2013-07-16 16:36:00,79.5,75.6,30.25,SW,214,0.0,0.0,88,0.00,BKN,,0.21,WeatherDisplay:10.37,2013-07-16 20:36:00,
2013-07-16 16:41:00,79.8,75.9,30.25,SW,214,0.0,1.1,88,0.00,BKN,,0.21,WeatherDisplay:10.37,2013-07-16 20:41:00,
2013-07-16 16:46:00,80.0,76.1,30.25,SW,214,0.0,0.0,88,0.00,BKN,,0.21,WeatherDisplay:10.37,2013-07-16 20:46:00,
2013-07-16 16:51:00,80.4,76.5,30.25,SW,214,0.0,0.0,88,0.00,BKN,,0.21,WeatherDisplay:10.37,2013-07-16 20:51:00,
2013-07-16 16:56:00,80.5,75.9,30.25,SW,214,0.0,0.0,86,0.00,BKN,,0.21,WeatherDisplay:10.37,2013-07-16 20:56:00,
2013-07-16 17:01:00,80.7,76.5,30.24,SW,214,0.0,0.0,87,0.00,BKN,,0.21,WeatherDisplay:10.37,2013-07-16 21:01:00,
2013-07-16 17:06:00,81.1,77.2,30.24,SW,214,0.0,0.0,88,0.00,BKN,,0.21,WeatherDisplay:10.37,2013-07-16 21:06:00,
2013-07-16 17:11:00,81.3,76.4,30.24,SW,214,0.0,0.0,85,0.00,BKN,,0.21,WeatherDisplay:10.37,2013-07-16 21:11:00,
2013-07-16 17:16:00,81.6,77.0,30.24,SW,214,0.0,0.0,86,0.00,BKN,,0.21,WeatherDisplay:10.37,2013-07-16 21:16:00,
2013-07-16 17:21:00,81.9,77.3,30.24,SW,214,0.0,0.0,86,0.00,BKN,,0.21,WeatherDisplay:10.37,2013-07-16 21:21:00,
2013-07-16 17:26:00,82.1,77.5,30.24,SW,214,0.0,0.0,86,0.00,BKN,,0.21,WeatherDisplay:10.37,2013-07-16 21:26:00,
2013-07-16 17:31:00,82.2,77.2,30.24,SW,214,0.0,0.0,85,0.00,BKN,,0.21,WeatherDisplay:10.37,2013-07-16 21:31:00,
2013-07-16 17:36:00,82.3,77.0,30.23,SW,214,0.0,0.0,84,0.00,BKN,,0.21,WeatherDisplay:10.37,2013-07-16 21:36:00,
2013-07-16 17:41:00,82.5,77.5,30.23,SW,214,0.0,0.0,85,0.00,BKN,,0.21,WeatherDisplay:10.37,2013-07-16 21:41:00,
2013-07-16 17:46:00,82.7,77.4,30.23,SW,214,0.0,1.1,84,0.00,BKN,,0.21,WeatherDisplay:10.37,2013-07-16 21:46:00,
2013-07-16 17:51:00,82.9,77.9,30.23,SW,214,0.0,0.0,85,0.00,BKN,,0.21,WeatherDisplay:10.37,2013-07-16 21:51:00,
2013-07-16 17:56:00,83.0,78.0,30.23,SW,214,0.0,0.0,85,0.00,BKN,,0.21,WeatherDisplay:10.37,2013-07-16 21:56:00,
2013-07-16 18:01:00,83.2,77.9,30.22,SW,214,0.0,0.0,84,0.00,BKN,,0.21,WeatherDisplay:10.37,2013-07-16 22:01:00,
2013-07-16 18:06:00,83.3,77.6,30.22,SW,214,0.0,0.0,83,0.00,BKN,,0.21,WeatherDisplay:10.37,2013-07-16 22:06:00,
2013-07-16 18:11:00,83.4,78.4,30.22,SW,214,0.0,0.0,85,0.00,BKN,,0.21,WeatherDisplay:10.37,2013-07-16 22:11:00,
2013-07-16 18:16:00,83.4,77.7,30.21,SW,214,0.0,0.0,83,0.00,BKN,,0.21,WeatherDisplay:10.37,2013-07-16 22:16:00,
2013-07-16 18:21:00,83.4,78.1,30.21,SW,214,0.0,0.0,84,0.00,BKN,,0.21,WeatherDisplay:10.37,2013-07-16 22:21:00,
2013-07-16 18:26:00,83.4,77.7,30.21,SW,214,0.0,0.0,83,0.00,BKN,,0.21,WeatherDisplay:10.37,2013-07-16 22:26:00,
2013-07-16 18:31:00,83.4,78.1,30.21,SW,214,0.0,0.0,84,0.00,BKN,,0.21,WeatherDisplay:10.37,2013-07-16 22:31:00,
2013-07-16 18:36:00,83.4,78.1,30.21,SW,214,0.1,1.1,84,0.00,BKN,,0.21,WeatherDisplay:10.37,2013-07-16 22:36:00,
2013-07-16 18:41:00,83.4,78.4,30.21,SW,214,0.0,0.0,85,0.00,BKN,,0.21,WeatherDisplay:10.37,2013-07-16 22:41:00,
2013-07-16 18:46:00,83.4,78.1,30.21,SW,214,0.0,0.0,84,0.00,BKN,,0.21,WeatherDisplay:10.37,2013-07-16 22:46:00,
2013-07-16 18:51:00,83.5,78.5,30.22,SW,214,0.0,0.0,85,0.00,BKN,,0.21,WeatherDisplay:10.37,2013-07-16 22:51:00,
2013-07-16 18:56:00,83.6,78.6,30.22,SW,214,0.0,0.0,85,0.00,BKN,,0.21,WeatherDisplay:10.37,2013-07-16 22:56:00,
2013-07-16 19:01:00,83.6,78.6,30.22,SW,214,0.0,0.0,85,0.00,BKN,,0.21,WeatherDisplay:10.37,2013-07-16 23:01:00,
2013-07-16 19:06:00,83.6,78.2,30.22,SW,214,0.0,0.0,84,0.00,BKN,,0.21,WeatherDisplay:10.37,2013-07-16 23:06:00,
2013-07-16 19:11:00,83.6,78.6,30.22,SW,214,0.0,0.0,85,0.00,BKN,,0.21,WeatherDisplay:10.37,2013-07-16 23:11:00,
2013-07-16 19:16:00,83.5,78.5,30.23,SW,214,0.0,0.0,85,0.00,BKN,,0.21,WeatherDisplay:10.37,2013-07-16 23:16:00,
2013-07-16 19:21:00,83.4,78.4,30.23,SW,214,0.0,0.0,85,0.00,BKN,,0.21,WeatherDisplay:10.37,2013-07-16 23:21:00,
2013-07-16 19:26:00,83.4,78.8,30.23,SW,214,0.0,0.0,86,0.00,BKN,,0.21,WeatherDisplay:10.37,2013-07-16 23:26:00,
2013-07-16 19:31:00,83.2,78.6,30.23,SW,214,0.0,0.0,86,0.00,BKN,,0.21,WeatherDisplay:10.37,2013-07-16 23:31:00,
2013-07-16 19:36:00,83.0,78.4,30.23,SW,214,0.0,0.0,86,0.00,BKN,,0.21,WeatherDisplay:10.37,2013-07-16 23:36:00,
2013-07-16 19:41:00,83.0,78.0,30.24,SW,214,0.0,0.0,85,0.00,BKN,,0.21,WeatherDisplay:10.37,2013-07-16 23:41:00,
2013-07-16 19:46:00,82.8,77.8,30.24,SW,214,0.0,0.0,85,0.00,BKN,,0.21,WeatherDisplay:10.37,2013-07-16 23:46:00,
2013-07-16 19:51:00,82.5,77.5,30.24,SW,214,0.0,0.0,85,0.00,BKN,,0.21,WeatherDisplay:10.37,2013-07-16 23:51:00,
2013-07-16 19:56:00,82.3,77.3,30.24,SW,214,0.0,0.0,85,0.00,BKN,,0.21,WeatherDisplay:10.37,2013-07-16 23:56:00,
2013-07-16 20:01:00,82.2,77.6,30.24,SW,214,0.0,0.0,86,0.00,BKN,,0.21,WeatherDisplay:10.37,2013-07-17 00:01:00,
2013-07-16 20:06:00,82.0,77.4,30.24,SW,214,0.0,0.0,86,0.00,BKN,,0.21,WeatherDisplay:10.37,2013-07-17 00:06:00,
2013-07-16 20:11:00,81.9,77.3,30.24,SW,214,0.0,0.0,86,0.00,BKN,,0.21,WeatherDisplay:10.37,2013-07-17 00:11:00,
2013-07-16 20:16:00,81.8,77.2,30.24,SW,214,0.0,0.0,86,0.00,BKN,,0.21,WeatherDisplay:10.37,2013-07-17 00:16:00,
2013-07-16 20:21:00,81.6,77.0,30.24,SW,214,0.0,0.0,86,0.00,BKN,,0.21,WeatherDisplay:10.37,2013-07-17 00:21:00,
2013-07-16 20:26:00,81.5,77.3,30.23,SW,214,0.0,0.0,87,0.00,BKN,,0.21,WeatherDisplay:10.37,2013-07-17 00:26:00,
2013-07-16 20:31:00,81.4,77.2,30.23,SW,214,0.0,0.0,87,0.00,BKN,,0.21,WeatherDisplay:10.37,2013-07-17 00:31:00,
2013-07-16 20:36:00,81.2,77.0,30.23,SW,214,0.0,0.0,87,0.00,BKN,,0.21,WeatherDisplay:10.37,2013-07-17 00:36:00,
2013-07-16 20:41:00,81.0,77.1,30.23,SW,214,0.0,0.0,88,0.00,BKN,,0.21,WeatherDisplay:10.37,2013-07-17 00:41:00,
2013-07-16 20:46:00,80.8,76.9,30.23,SW,214,0.0,0.0,88,0.00,BKN,,0.21,WeatherDisplay:10.37,2013-07-17 00:46:00,
2013-07-16 20:51:00,80.6,76.7,30.23,SW,214,0.0,0.0,88,0.00,BKN,,0.21,WeatherDisplay:10.37,2013-07-17 00:51:00,
2013-07-16 20:56:00,80.4,76.5,30.23,SW,214,0.0,0.0,88,0.00,BKN,,0.21,WeatherDisplay:10.37,2013-07-17 00:56:00,
2013-07-16 21:01:00,80.2,76.7,30.23,SW,214,0.0,0.0,89,0.00,BKN,,0.21,WeatherDisplay:10.37,2013-07-17 01:01:00,
2013-07-16 21:06:00,80.0,76.5,30.23,SW,214,0.0,0.0,89,0.00,BKN,,0.21,WeatherDisplay:10.37,2013-07-17 01:06:00,
2013-07-16 21:11:00,79.9,76.4,30.23,SW,214,0.0,0.0,89,0.00,BKN,,0.21,WeatherDisplay:10.37,2013-07-17 01:11:00,
2013-07-16 21:16:00,79.8,76.6,30.23,SW,214,0.0,0.0,90,0.00,BKN,,0.21,WeatherDisplay:10.37,2013-07-17 01:16:00,
2013-07-16 21:21:00,79.6,76.4,30.23,SW,214,0.0,0.0,90,0.00,BKN,,0.21,WeatherDisplay:10.37,2013-07-17 01:21:00,
2013-07-16 21:26:00,79.4,76.2,30.23,SW,214,0.0,0.0,90,0.00,BKN,,0.21,WeatherDisplay:10.37,2013-07-17 01:26:00,
2013-07-16 21:31:00,79.1,75.9,30.24,SW,214,0.0,0.0,90,0.00,BKN,,0.21,WeatherDisplay:10.37,2013-07-17 01:31:00,
2013-07-16 21:36:00,78.9,75.7,30.24,SW,214,0.0,0.0,90,0.00,BKN,,0.21,WeatherDisplay:10.37,2013-07-17 01:36:00,
2013-07-16 21:41:00,78.7,75.5,30.24,SW,214,0.0,0.0,90,0.00,BKN,,0.21,WeatherDisplay:10.37,2013-07-17 01:41:00,
2013-07-16 21:46:00,78.5,75.3,30.24,SW,214,0.0,0.0,90,0.00,BKN,,0.21,WeatherDisplay:10.37,2013-07-17 01:46:00,
2013-07-16 21:51:00,78.4,75.6,30.24,SW,214,0.0,0.0,91,0.00,BKN,,0.21,WeatherDisplay:10.37,2013-07-17 01:51:00,
2013-07-16 21:56:00,78.2,75.4,30.24,SW,214,0.0,0.0,91,0.00,BKN,,0.21,WeatherDisplay:10.37,2013-07-17 01:56:00,
2013-07-16 22:01:00,78.1,75.3,30.25,SW,214,0.0,0.0,91,0.00,BKN,,0.21,WeatherDisplay:10.37,2013-07-17 02:01:00,
2013-07-16 22:06:00,77.9,75.1,30.25,SW,214,0.0,0.0,91,0.00,BKN,,0.21,WeatherDisplay:10.37,2013-07-17 02:06:00,
2013-07-16 22:11:00,77.8,75.0,30.25,SW,214,0.0,0.0,91,0.00,BKN,,0.21,WeatherDisplay:10.37,2013-07-17 02:11:00,
2013-07-16 22:16:00,77.7,74.9,30.25,SW,214,0.0,0.0,91,0.00,BKN,,0.21,WeatherDisplay:10.37,2013-07-17 02:16:00,
2013-07-16 22:21:00,77.6,74.8,30.25,SW,214,0.0,0.0,91,0.00,BKN,,0.21,WeatherDisplay:10.37,2013-07-17 02:21:00,
2013-07-16 22:26:00,77.4,74.6,30.25,SW,214,0.0,0.0,91,0.00,BKN,,0.21,WeatherDisplay:10.37,2013-07-17 02:26:00,
2013-07-16 22:31:00,77.3,74.5,30.25,SW,214,0.0,0.0,91,0.00,BKN,,0.21,WeatherDisplay:10.37,2013-07-17 02:31:00,
2013-07-16 22:36:00,77.2,74.7,30.25,SW,214,0.0,0.0,92,0.00,BKN,,0.21,WeatherDisplay:10.37,2013-07-17 02:36:00,
2013-07-16 22:41:00,77.1,74.6,30.25,SW,214,0.0,0.0,92,0.00,BKN,,0.21,WeatherDisplay:10.37,2013-07-17 02:41:00,
2013-07-16 22:46:00,76.9,74.4,30.25,SW,214,0.0,0.0,92,0.00,BKN,,0.21,WeatherDisplay:10.37,2013-07-17 02:46:00,
2013-07-16 22:51:00,76.8,74.3,30.25,SW,214,0.0,0.0,92,0.00,BKN,,0.21,WeatherDisplay:10.37,2013-07-17 02:51:00,
2013-07-16 22:56:00,76.6,74.1,30.25,SW,214,0.0,0.0,92,0.00,BKN,,0.21,WeatherDisplay:10.37,2013-07-17 02:56:00,
2013-07-16 23:01:00,76.6,74.1,30.25,SW,214,0.0,0.0,92,0.00,BKN,,0.21,WeatherDisplay:10.37,2013-07-17 03:01:00,
2013-07-16 23:06:00,76.5,74.0,30.25,SW,214,0.0,0.0,92,0.00,BKN,,0.21,WeatherDisplay:10.37,2013-07-17 03:06:00,
2013-07-16 23:11:00,76.3,73.8,30.25,SW,214,0.0,0.0,92,0.00,BKN,,0.21,WeatherDisplay:10.37,2013-07-17 03:11:00,
2013-07-16 23:16:00,76.2,73.7,30.25,SW,214,0.0,0.0,92,0.00,BKN,,0.21,WeatherDisplay:10.37,2013-07-17 03:16:00,
2013-07-16 23:21:00,76.1,73.6,30.25,SW,214,0.0,0.0,92,0.00,BKN,,0.21,WeatherDisplay:10.37,2013-07-17 03:21:00,
2013-07-16 23:26:00,76.0,73.5,30.25,SW,214,0.0,0.0,92,0.00,BKN,,0.21,WeatherDisplay:10.37,2013-07-17 03:26:00,
2013-07-16 23:31:00,75.9,73.4,30.25,SW,214,0.0,0.0,92,0.00,BKN,,0.21,WeatherDisplay:10.37,2013-07-17 03:31:00,
2013-07-16 23:36:00,75.8,73.3,30.25,SW,214,0.0,0.0,92,0.00,BKN,,0.21,WeatherDisplay:10.37,2013-07-17 03:36:00,
2013-07-16 23:41:00,75.7,73.2,30.25,SW,214,0.0,0.0,92,0.00,BKN,,0.21,WeatherDisplay:10.37,2013-07-17 03:41:00,
2013-07-16 23:46:00,75.5,73.0,30.25,SW,214,0.0,0.0,92,0.00,BKN,,0.21,WeatherDisplay:10.37,2013-07-17 03:46:00,
2013-07-16 23:51:00,75.4,72.9,30.25,SW,214,0.0,0.0,92,0.00,BKN,,0.21,WeatherDisplay:10.37,2013-07-17 03:51:00,
2013-07-16 23:56:00,75.3,72.8,30.25,SW,214,0.0,0.0,92,0.00,BKN,,0.21,WeatherDisplay:10.37,2013-07-17 03:56:00,